N7NKE Weather Reports


time (UTC)temp
C
wind
direction
speed
KPH
gust
KPH
rain 1hr
cm
rain 24hr
cm
rain mn
cm
humidity
%
barometer
mb
20260903150005 12 156 8.0 19.3 0.13 1.32 0.64 90 1009.5
20260903145505 12 176 9.7 14.5 0.10 1.30 0.61 90 1009.3
20260903145005 12 166 8.0 14.5 0.10 1.30 0.61 90 1009.3
20260903144505 12 150 4.8 12.9 0.10 1.27 0.58 90 1009.3
20260903143505 12 160 8.0 12.9 0.13 1.27 0.58 90 1009.2
20260903143005 12 178 9.7 16.1 0.10 1.24 0.56 90 1009.1
20260903142505 12 189 8.0 12.9 0.13 1.24 0.56 90 1009.1
20260903142005 12 191 12.9 20.9 0.18 1.22 0.53 90 1009.1
20260903141505 12 175 12.9 25.7 0.23 1.22 0.53 90 1009.1
20260903141005 12 181 4.8 11.3 0.23 1.22 0.53 90 1009.1
20260903140505 12 189 4.8 11.3 0.20 1.19 0.51 90 1009.0
20260903140005 12 174 6.4 12.9 0.20 1.19 0.51 90 1009.0
20260903135505 12 185 6.4 16.1 0.20 1.19 0.51 90 1009.0
20260903134505 12 171 8.0 16.1 0.18 1.17 0.48 90 1009.0
20260903134005 12 152 4.8 16.1 0.15 1.14 0.46 90 1009.0
20260903133504 12 172 8.0 12.9 0.20 1.14 0.46 90 1008.8
20260903133005 12 168 8.0 11.3 0.28 1.14 0.46 90 1008.9
20260903132505 12 155 3.2 11.3 0.28 1.12 0.43 90 1008.9
20260903132006 12 177 4.8 14.5 0.20 1.04 0.36 90 1009.0
20260903131505 12 177 8.0 14.5 0.18 0.99 0.30 90 1008.9
20260903131005 12 188 9.7 16.1 0.18 0.99 0.30 90 1008.8
20260903130005 12 163 9.7 19.3 0.23 0.99 0.30 90 1008.7
20260903125504 12 165 4.8 11.3 0.23 0.99 0.30 90 1008.7
20260903125005 12 165 3.2 8.0 0.25 0.99 0.30 90 1008.7
20260903124505 12 137 4.8 8.0 0.25 0.99 0.30 90 1008.7
20260903124004 12 170 8.0 11.3 0.28 0.99 0.30 90 1008.8
20260903123505 12 172 8.0 12.9 0.23 0.94 0.25 90 1008.9
20260903123005 12 179 8.0 12.9 0.18 0.86 0.18 90 1009.0
20260903122505 13 160 9.7 16.1 0.15 0.84 0.15 90 1009.0
20260903122005 13 187 8.0 14.5 0.15 0.84 0.15 89 1009.0
20260903121505 13 176 4.8 12.9 0.13 0.81 0.13 89 1009.0
20260903121005 13 180 8.0 11.3 0.13 0.81 0.13 89 1008.9
20260903120504 13 162 4.8 9.7 0.10 0.79 0.10 89 1008.9
20260903120005 13 171 4.8 12.9 0.08 0.76 0.08 89 1008.9
20260903115504 13 166 6.4 12.9 0.08 0.76 0.08 89 1008.9
20260903114505 13 154 3.2 11.3 0.05 0.74 0.05 89 1008.9
20260903113504 13 174 8.0 16.1 0.03 0.71 0.03 88 1009.0
20260903112505 13 153 6.4 12.9 0.00 0.69 0.00 88 1008.9
20260903111505 13 167 8.0 16.1 0.00 0.69 0.00 88 1009.0
20260903111004 13 154 9.7 14.5 0.00 0.69 0.00 88 1008.9
20260903110504 13 170 8.0 19.3 0.00 0.69 0.00 88 1008.9
20260903110005 13 146 6.4 12.9 0.00 0.69 0.00 88 1008.8
20260903105505 13 155 8.0 14.5 0.00 0.69 0.00 88 1008.9
20260903104505 13 139 6.4 11.3 0.00 0.69 0.00 87 1008.8
20260903104005 13 149 6.4 14.5 0.00 0.69 0.00 87 1008.8
20260903103505 13 183 8.0 12.9 0.00 0.69 0.00 87 1008.8
20260903103004 13 176 4.8 16.1 0.00 0.69 0.00 87 1008.8
20260903102504 13 165 8.0 12.9 0.00 0.69 0.00 87 1008.9
20260903102005 13 192 11.3 20.9 0.00 0.69 0.00 87 1008.9
20260903101505 13 180 12.9 20.9 0.00 0.69 0.00 88 1008.9
20260903101005 13 160 4.8 11.3 0.00 0.69 0.00 88 1008.9
20260903100504 13 199 6.4 12.9 0.00 0.69 0.00 88 1008.9
20260903100004 13 163 4.8 14.5 0.00 0.69 0.00 88 1008.8
20260903095505 13 170 8.0 16.1 0.00 0.69 0.00 88 1008.8
20260903094505 13 165 9.7 16.1 0.00 0.69 0.00 88 1008.8
20260903094005 13 151 9.7 14.5 0.00 0.69 0.00 88 1008.8
20260903093504 13 185 9.7 14.5 0.00 0.69 0.00 88 1008.8
20260903093005 13 150 9.7 19.3 0.00 0.69 0.00 88 1008.8
20260903092505 13 168 8.0 16.1 0.00 0.69 0.00 88 1008.9
20260903092004 13 156 4.8 11.3 0.00 0.69 0.00 88 1009.0
20260903091005 13 167 4.8 12.9 0.00 0.69 0.00 88 1008.9
20260903090504 13 162 8.0 14.5 0.00 0.69 0.00 88 1009.0
20260903085504 13 156 9.7 16.1 0.00 0.69 0.00 88 1009.0
20260903085005 13 175 9.7 14.5 0.00 0.69 0.00 88 1009.1
20260903084505 13 170 8.0 19.3 0.00 0.69 0.00 88 1009.1
20260903084005 13 161 11.3 22.5 0.00 0.69 0.00 88 1009.1
20260903083505 13 184 8.0 19.3 0.00 0.69 0.00 88 1009.0
20260903082505 13 167 4.8 16.1 0.00 0.69 0.00 88 1009.1
20260903082004 13 184 4.8 19.3 0.00 0.69 0.00 88 1009.1
20260903081005 13 159 9.7 16.1 0.00 0.69 0.00 88 1009.1
20260903080504 13 177 9.7 16.1 0.00 0.69 0.00 88 1009.2
20260903075504 13 178 6.4 14.5 0.00 0.69 0.00 88 1009.2
20260903075005 13 177 4.8 16.1 0.00 0.69 0.00 88 1009.3
20260903074504 13 193 4.8 11.3 0.00 0.69 0.00 88 1009.3
20260903074004 13 165 8.0 14.5 0.00 0.69 0.00 88 1009.3
20260903073505 13 177 9.7 16.1 0.00 0.69 0.00 88 1009.3
20260903072005 13 173 9.7 16.1 0.00 0.69 0.00 88 1009.3
20260903071504 13 176 11.3 19.3 0.00 0.69 0.00 88 1009.2
20260903071005 13 168 4.8 12.9 0.00 0.69 0.00 88 1009.1
20260903070505 13 178 4.8 11.3 0.00 0.69 0.00 88 1009.1
20260903070005 13 164 3.2 8.0 0.00 0.69 0.00 88 1009.1
20260903065504 13 167 4.8 11.3 0.00 0.69 0.69 88 1009.2
20260903065005 13 191 4.8 12.9 0.00 0.69 0.69 88 1009.1
20260903064505 13 162 3.2 11.3 0.00 0.69 0.69 87 1009.0
20260903064004 13 201 3.2 11.3 0.00 0.69 0.69 87 1009.1
20260903062505 13 195 4.8 9.7 0.00 0.69 0.69 87 1009.1
20260903062005 13 177 6.4 9.7 0.00 0.69 0.69 87 1009.0
20260903061505 13 164 4.8 9.7 0.00 0.69 0.69 87 1009.0
20260903061004 13 183 4.8 8.0 0.00 0.69 0.69 87 1009.1
20260903060505 13 195 3.2 14.5 0.00 0.69 0.69 86 1009.2
20260903060004 13 200 4.8 11.3 0.00 0.69 0.69 86 1009.2
20260903055505 13 175 3.2 9.7 0.00 0.69 0.69 86 1009.3
20260903055005 13 198 4.8 12.9 0.00 0.69 0.69 86 1009.3
20260903054505 13 198 9.7 12.9 0.00 0.69 0.69 86 1009.3
20260903054005 13 189 4.8 11.3 0.00 0.69 0.69 86 1009.3
20260903053504 13 173 4.8 16.1 0.00 0.69 0.69 86 1009.2
20260903051005 13 184 4.8 9.7 0.00 0.69 0.69 85 1009.2
20260903050505 13 189 4.8 9.7 0.00 0.69 0.69 85 1009.1
20260903050005 13 202 3.2 14.5 0.00 0.69 0.69 85 1009.0
20260903045505 13 187 6.4 11.3 0.00 0.69 0.69 86 1009.0
20260903045004 13 183 3.2 8.0 0.00 0.69 0.69 85 1009.0
20260903044505 13 203 8.0 11.3 0.00 0.69 0.69 86 1008.8
20260903044004 13 179 8.0 11.3 0.00 0.69 0.69 86 1008.8
20260903043505 13 194 4.8 9.7 0.00 0.69 0.69 86 1008.7
20260903043005 13 203 4.8 8.0 0.00 0.69 0.69 86 1008.6
20260903042504 13 202 4.8 8.0 0.00 0.69 0.69 86 1008.5
20260903042005 13 193 3.2 9.7 0.00 0.69 0.69 86 1008.6
20260903041505 13 203 4.8 9.7 0.00 0.69 0.69 85 1008.5
20260903041005 13 197 3.2 4.8 0.00 0.69 0.69 85 1008.6
20260903040504 13 203 3.2 8.0 0.00 0.69 0.69 84 1008.5
20260903040004 13 225 4.8 4.8 0.00 0.69 0.69 84 1008.5
20260903035505 13 215 3.2 8.0 0.00 0.69 0.69 84 1008.3
20260903035005 13 204 4.8 9.7 0.00 0.69 0.69 85 1008.3
20260903034505 13 209 3.2 9.7 0.00 0.69 0.69 85 1008.3
20260903033505 13 191 3.2 8.0 0.00 0.69 0.69 85 1008.0
20260903032005 13 194 3.2 4.8 0.00 0.69 0.69 84 1007.9
20260903031504 14 218 4.8 4.8 0.00 0.69 0.69 84 1008.0
20260903031004 14 215 3.2 8.0 0.00 0.69 0.69 83 1007.9
20260903030504 14 214 3.2 4.8 0.00 0.69 0.69 83 1007.8
20260903030005 15 213 3.2 4.8 0.00 0.69 0.69 82 1007.8
20260903025005 15 243 1.6 4.8 0.00 0.69 0.69 80 1007.6
20260903024504 15 212 4.8 9.7 0.00 0.69 0.69 80 1007.6
20260903024005 15 210 3.2 4.8 0.00 0.69 0.69 80 1007.6
20260903023504 16 218 3.2 4.8 0.00 0.69 0.69 80 1007.6
20260903023005 16 206 3.2 4.8 0.00 0.69 0.69 79 1007.5
20260903022505 16 225 3.2 4.8 0.00 0.69 0.69 78 1007.5
20260903022004 17 170 3.2 4.8 0.00 0.69 0.69 78 1007.4
20260903021505 17 196 1.6 4.8 0.00 0.69 0.69 76 1007.4
20260903021004 17 201 3.2 4.8 0.03 0.69 0.69 74 1007.4
20260903020504 18 206 4.8 4.8 0.03 0.69 0.69 72 1007.3
20260903020004 18 235 3.2 8.0 0.03 0.69 0.69 72 1007.2
20260903015504 18 221 3.2 3.2 0.03 0.69 0.69 70 1007.3
20260903015004 18 272 1.6 4.8 0.03 0.69 0.69 73 1007.2
20260903014505 18 254 4.8 9.7 0.03 0.69 0.69 70 1007.3
20260903013505 18 234 0.0 3.2 0.03 0.69 0.69 71 1007.2
20260903013005 18 234 0.0 3.2 0.03 0.69 0.69 73 1007.1
20260903012505 17 211 0.0 3.2 0.03 0.69 0.69 76 1007.1
20260903012005 17 205 1.6 3.2 0.03 0.69 0.69 73 1007.0
20260903011005 18 235 1.6 3.2 0.00 0.66 0.66 73 1006.9
20260903010504 18 206 1.6 8.0 0.00 0.66 0.66 69 1006.9
20260903010005 18 200 4.8 9.7 0.00 0.66 0.66 68 1006.9
20260903005505 18 221 4.8 9.7 0.00 0.66 0.66 70 1006.8
20260903005005 19 258 6.4 12.9 0.00 0.66 0.66 67 1006.8
20260903004504 18 214 3.2 11.3 0.00 0.66 0.66 67 1006.7
20260903004004 18 198 8.0 14.5 0.00 0.66 0.66 69 1006.6
20260903003505 18 175 8.0 11.3 0.00 0.66 0.66 73 1006.7
20260903003004 18 193 8.0 11.3 0.00 0.66 0.66 72 1006.8
20260903002504 18 182 6.4 11.3 0.00 0.66 0.66 71 1006.7
20260903002004 18 176 3.2 12.9 0.00 0.66 0.66 68 1006.7
20260903001505 19 204 9.7 16.1 0.00 0.66 0.66 72 1006.6
20260903000505 18 204 6.4 11.3 0.00 0.66 0.66 73 1006.7
20260902235505 18 258 6.4 14.5 0.00 0.66 0.66 71 1006.6
20260902235005 18 226 4.8 9.7 0.00 0.66 0.66 71 1006.6
20260902234504 18 148 4.8 9.7 0.00 0.66 0.66 73 1006.5
20260902234005 18 199 6.4 11.3 0.00 0.66 0.66 71 1006.5
20260902233504 18 201 8.0 12.9 0.00 0.66 0.66 76 1006.4
20260902232504 18 186 4.8 12.9 0.00 0.66 0.66 77 1006.5
20260902232005 18 202 3.2 4.8 0.00 0.66 0.66 78 1006.5
20260902231504 17 182 4.8 8.0 0.00 0.66 0.66 81 1006.4
20260902231005 17 175 4.8 9.7 0.03 0.66 0.66 81 1006.4
20260902230004 17 225 6.4 12.9 0.03 0.66 0.66 85 1006.4
20260902225504 17 169 8.0 14.5 0.03 0.66 0.66 87 1006.4
20260902224505 16 200 8.0 14.5 0.03 0.66 0.66 88 1006.1
20260902224004 16 196 6.4 12.9 0.03 0.66 0.66 89 1006.1
20260902223505 16 205 9.7 12.9 0.03 0.66 0.66 89 1006.0
20260902223004 16 180 9.7 20.9 0.05 0.66 0.66 89 1006.0
20260902222505 15 183 8.0 16.1 0.05 0.66 0.66 90 1006.0
20260902222004 15 192 9.7 19.3 0.05 0.66 0.66 89 1006.0
20260902221506 15 190 12.9 22.5 0.05 0.66 0.66 89 1005.9
20260902220505 15 176 16.1 24.1 0.03 0.64 0.64 90 1005.7
20260902215504 15 176 12.9 25.7 0.05 0.64 0.64 90 1005.6
20260902215005 15 146 14.5 25.7 0.05 0.64 0.64 90 1005.5
20260902214504 15 178 11.3 20.9 0.05 0.64 0.64 90 1005.6
20260902214005 15 154 9.7 20.9 0.05 0.64 0.64 90 1005.6
20260902213504 15 175 9.7 22.5 0.05 0.64 0.64 90 1005.6
20260902213004 15 174 11.3 27.4 0.05 0.61 0.61 90 1005.6
20260902212505 15 184 11.3 20.9 0.05 0.61 0.61 90 1005.6
20260902212004 15 163 11.3 20.9 0.05 0.61 0.61 90 1005.6
20260902211504 15 151 11.3 20.9 0.05 0.61 0.61 89 1005.6
20260902211004 15 167 12.9 22.5 0.08 0.61 0.61 89 1005.5
20260902205505 15 163 12.9 22.5 0.08 0.58 0.58 89 1005.5
20260902205004 14 176 16.1 25.7 0.08 0.58 0.58 89 1005.4
20260902204504 15 165 16.1 22.5 0.08 0.58 0.58 90 1005.4
20260902203505 14 162 9.7 24.1 0.08 0.58 0.58 89 1005.4
20260902202004 14 179 8.0 20.9 0.08 0.56 0.56 89 1005.4
20260902201005 14 180 9.7 24.1 0.05 0.53 0.53 89 1005.4
20260902200505 14 158 12.9 25.7 0.05 0.53 0.53 88 1005.4
20260902200004 14 159 16.1 24.1 0.08 0.53 0.53 88 1005.3
20260902195504 14 161 11.3 20.9 0.10 0.51 0.51 88 1005.4
20260902195004 15 191 11.3 25.7 0.15 0.51 0.51 88 1005.4
20260902194504 15 185 9.7 27.4 0.15 0.51 0.51 88 1005.3
20260902193504 14 125 9.7 16.1 0.18 0.51 0.51 89 1005.3
20260902192505 14 177 14.5 19.3 0.20 0.51 0.51 89 1005.5
20260902192004 14 184 14.5 22.5 0.18 0.48 0.48 89 1005.6
20260902191505 14 176 6.4 20.9 0.18 0.48 0.48 89 1005.7
20260902191004 14 163 6.4 19.3 0.18 0.48 0.48 89 1005.7
20260902190504 14 133 6.4 14.5 0.18 0.48 0.48 88 1005.8
20260902190004 15 169 11.3 16.1 0.18 0.46 0.46 88 1006.0
20260902185505 15 172 9.7 19.3 0.13 0.41 0.41 88 1006.1
20260902185004 15 172 8.0 16.1 0.10 0.36 0.36 88 1006.0
20260902184504 15 191 9.7 16.1 0.10 0.36 0.36 88 1006.0
20260902184005 15 182 9.7 16.1 0.08 0.33 0.33 88 1005.9
20260902183504 15 151 9.7 16.1 0.10 0.33 0.33 88 1006.0
20260902183005 15 171 9.7 14.5 0.08 0.30 0.30 88 1006.0
20260902182504 15 185 4.8 11.3 0.08 0.30 0.30 88 1006.0
20260902182004 15 150 8.0 16.1 0.10 0.30 0.30 88 1006.1
20260902181505 14 181 8.0 16.1 0.13 0.30 0.30 88 1006.1
20260902181004 14 166 9.7 16.1 0.13 0.30 0.30 88 1006.2
20260902180505 15 155 8.0 19.3 0.18 0.30 0.30 88 1006.2
20260902175504 15 179 9.7 19.3 0.18 0.28 0.28 88 1006.4
20260902175005 15 149 11.3 20.9 0.18 0.25 0.25 88 1006.4
20260902174505 15 134 6.4 19.3 0.20 0.25 0.25 88 1006.4
20260902174004 15 176 8.0 14.5 0.23 0.25 0.25 88 1006.4
20260902173505 15 162 9.7 19.3 0.20 0.23 0.23 88 1006.5
20260902173004 15 158 8.0 11.3 0.23 0.23 0.23 88 1006.4
20260902172504 15 150 4.8 16.1 0.23 0.23 0.23 88 1006.4
20260902171505 15 181 4.8 14.5 0.18 0.18 0.18 87 1006.4
20260902170504 15 182 4.8 8.0 0.13 0.13 0.13 87 1006.5
20260902170005 15 183 3.2 8.0 0.10 0.10 0.10 86 1006.4
20260902165504 15 165 3.2 4.8 0.10 0.10 0.10 86 1006.5
20260902164505 15 155 3.2 8.0 0.05 0.05 0.05 86 1006.4
20260902164004 15 163 3.2 4.8 0.03 0.03 0.03 85 1006.5
20260902163504 15 158 3.2 8.0 0.03 0.03 0.03 85 1006.5
20260902163004 15 171 1.6 4.8 0.00 0.00 0.00 85 1006.4
20260902162504 15 174 3.2 8.0 0.00 0.00 0.00 85 1006.5
20260902162004 15 170 3.2 4.8 0.00 0.00 0.00 84 1006.4
20260902161504 15 202 1.6 3.2 0.00 0.00 0.00 84 1006.4
20260902161004 15 184 3.2 4.8 0.00 0.00 0.00 83 1006.4
20260902160504 15 173 3.2 4.8 0.00 0.00 0.00 82 1006.4
20260902160006 15 171 3.2 8.0 0.00 0.00 0.00 82 1006.4
20260902155504 15 215 3.2 4.8 0.00 0.00 0.00 82 1006.4
20260902155004 15 181 3.2 8.0 0.00 0.00 0.00 83 1006.4
20260902154504 15 159 1.6 8.0 0.00 0.00 0.00 82 1006.5
20260902154004 15 191 3.2 3.2 0.00 0.00 0.00 83 1006.5
20260902153504 15 173 1.6 4.8 0.00 0.00 0.00 84 1006.6
20260902152504 15 192 3.2 3.2 0.00 0.00 0.00 84 1006.7
20260902152005 15 188 1.6 3.2 0.00 0.00 0.00 84 1006.8
20260902151505 15 209 1.6 8.0 0.00 0.00 0.00 84 1006.8
20260902151005 15 190 3.2 9.7 0.00 0.00 0.00 84 1007.0
20260902150504 15 180 4.8 9.7 0.00 0.00 0.00 84 1007.0